Location: Unspecified
(0.0000°N, 0.0000°E)
Time: 13:46:41
(UTC+00:00)

SRMSAT - Pass Details

Date: 10 December 2017
Orbit: 849 x 866 km, 20.0° (Epoch: 18 January)

Event Time Altitude Azimuth Distance (km) Brightness Sun altitude
Rises 19:10:39 0° 258° (WSW) 3,397 ? -17.8°
Reaches altitude 10° 19:13:53 10° 242° (WSW) 2,461 ? -18.5°
Maximum altitude 19:18:08 20° 196° (SSW) 1,844 ? -19.5°
Drops below altitude 10° 19:22:24 10° 149° (SSE) 2,463 ? -20.5°
Enters shadow 19:25:10 - 135° (SE) 3,249 ? -21.1°
